Regional Weather Roundup
Issued by NWS

Home | Current Version | Previous Version | Text Only | Print | Product List | Glossary On
Versions: 1 2 3 4 5 6 7 8 9 10 11 12 13 14 15 16 17 18 19 20 21 22 23 24 25 26 27 28 29 30 31 32 33 34 35 36 37 38 39 40 41 42 43 44 45 46 47 48 49 50
000
ASCA44 KEWX 230020
RWRMX

LATIN AMERICA AND CARIBBEAN REGIONAL WEATHER ROUNDUP
NATIONAL WEATHER SERVICE AUSTIN/SAN ANTONIO TX
700 PM CDT MON SEP 22 2014

NOTE: "FAIR" INDICATED FEW OR NO CLOUDS BELOW 12,000 FEET WITH NO
SIGNIFICANT WEATHER AND/OR OBSTRUCTIONS TO VISIBILITY.

BAJA CALIFORNIA

CITY           SKY/WX    TMP DP  RH WIND       PRES   REMARKS
LORETO         MOSUNNY   90  77  66 NE7       29.80F HX 102
LA PAZ         PTSUNNY   90  66  45 N12       29.82  HX  92
MEXICALI       SUNNY    100  52  19 SE3       29.80  HX  98
S.J. DEL CABO  MOSUNNY   82  75  78 SE9       29.83F
TIJUANA          N/A    N/A N/A N/A MISG        N/A

NORTHWESTERN MEXICO

CITY           SKY/WX    TMP DP  RH WIND       PRES   REMARKS
CULIACAN       PTSUNNY   90  75  62 NW12      29.83  HX 100
DURANGO        CLOUDY    70  61  73 CALM      30.21S
GUAYMAS        MOSUNNY   90  79  70 SW14      29.78  HX 105
HERMOSILLO     PTSUNNY   95  75  52 SW6       29.86  HX 107
CD. JUAREZ     CLOUDY    70  68  94 E6        30.13
LOS MOCHIS     MOSUNNY   86  72  62 SW7       29.83S HX  92
OBREGON        PTSUNNY   91  72  52 SW5       29.79  HX  98

NORTHEASTERN MEXICO

CITY           SKY/WX    TMP DP  RH WIND       PRES   REMARKS
CHIHUAHUA      PTSUNNY   70  64  83 CALM      30.16
MATAMOROS      MOCLDY    81  79  94 NE12      29.99
MONTERREY      MOCLDY    81  66  61 SE6       30.04R
NUEVO LAREDO   PTCLDY    93  64  38 E8        30.00  HX  95
PIEDRAS NEGRAS PTCLDY    91  72  52 SE9       30.04S HX  98
REYNOSA        PTCLDY    81  66  61 NE12      29.98
SALTILLO       MOCLDY    66  61  82 N23       30.22R
TORREON        PTSUNNY   82  57  42 NE12      30.08S
CD. VICTORIA   RAIN      75  75 100 NW8       29.99

WESTERN MEXICO

CITY           SKY/WX    TMP DP  RH WIND       PRES   REMARKS
AGUASCALIENTES PTCLDY    75  50  41 NE9       30.16
COLIMA         PTSUNNY   64  61  88 SW10      30.14R
GUADALAJARA    PTSUNNY   77  59  53 CALM      30.06
MANZANILLO     PTSUNNY   84  79  84 W9        29.77R HX  96
MAZATLAN       PTSUNNY   82  72  69 W14       29.78F
P. VALLARTA    PTSUNNY   86  73  66 CALM      29.80S HX  93
URUAPAN        DRIZZLE   68  66  94 CALM      30.12S
ZACATECAS      MOCLDY    64  55  72 E12       30.24S

CENTRAL MEXICO

CITY           SKY/WX    TMP DP  RH WIND       PRES   REMARKS
CUERNAVACA     MOCLDY    70  63  78 CALM      30.03S
MEXICO CITY    TSTM      61  55  82 NE3       30.27R
MORELIA        MOCLDY    64  61  88 SW10      30.14
POZA RICA      CLOUDY    79  77  94 S9        29.95R
PUEBLA         LGT RAIN  63  63 100 CALM      30.29S
QUERETARO      MOCLDY    70  57  64 NE16      30.22R
S. LUIS POTOSI CLOUDY    70  57  64 E14       30.20R
TAMPICO        MOCLDY    82  73  74 NE12      29.92R
TOLUCA         TSTM      59  46  63 E14       30.36R

SOUTHERN MEXICO

CITY           SKY/WX    TMP DP  RH WIND       PRES   REMARKS
ACAPULCO       MOCLDY    82  77  83 S3        29.82R HX  91
B. DE HUATULCO PTCLDY    81  72  74 E12       29.87
OAXACA         MOCLDY    68  59  73 SW3       30.16S
P. ESCONDIDO   PTCLDY    84  75  74 SE9       29.95S HX  92
VERACRUZ       PTCLDY    82  75  78 NE12      29.87
ZIHUATANEJO    LGT RAIN  81  75  83 NE6       29.83R

YUCATAN PENINSULA

CITY           SKY/WX    TMP DP  RH WIND       PRES   REMARKS
CAMPECHE       PTCLDY    84  79  84 N12       29.86R HX  96
CANCUN         CLOUDY    81  77  89 SE2       29.92S
CHETUMAL       LGT RAIN  79  75  89 E9        29.90R
CD. DEL CARMEN PTCLDY    84  75  74 N12       29.86  HX  92
COZUMEL        CLOUDY    73  72  94 S3        29.92R
MERIDA         TSTM      73  73 100 E7        29.95R
MINATITLAN     PTCLDY    84  73  70 N12       29.83  HX  91
TAPACHULA      PTCLDY    84  75  74 CALM      29.86R HX  92
TUX. GUTIERREZ CLOUDY    73  70  88 N5        29.94R
VILLAHERMOSA   PTCLDY    84  75  74 CALM      29.86R HX  92

CENTRAL AMERICA

CITY           SKY/WX    TMP DP  RH WIND       PRES   REMARKS
BELIZE CITY    PTCLDY    84  77  79 E6        29.88R HX  94
MANAGUA        PTCLDY    77  75  94 NE9       29.83R

CARIBBEAN

CITY           SKY/WX    TMP DP  RH WIND       PRES   REMARKS
ARUBA          PTCLDY    84  77  79 NE10      29.83R HX  94
KINGSTON       MOCLDY    82  73  74 N10       29.89R
NASSAU         MOCLDY    84  79  84 S6        30.00R HX  96
SAN JUAN       PTCLDY    81  77  89 E5        29.93R
SANTO DOMINGO  PTCLDY    77  75  94 NE7       29.92R THUNDER
ST. CROIX      CLEAR     82  75  78 E10       29.93S
ST. KITTS      PTCLDY    79  77  94 E7        29.94S
ST. MAARTEN    PTCLDY    81  73  78 SE9       29.94R

$$



USA.gov is the U.S. government's official web portal to all federal, state and local government web resources and services.